Theta_e
350 348 347 346 345 347 342 338 337 339 339 338 337 336 335 335 333 333 333 333 332 331 330 328 329 331 332 332 331 329 331 331 331 332 332 332 332 332 332 333 334 334 333 333 333 332 332 332 333 333 335 336 336 337 337 337 338 338 339 340 340 339 340
350 348 348 345 346 346 341 336 336 337 339 337 336 336 336 335 334 334 334 333 332 332 330 328 329 331 332 332 330 331 332 332 332 331 331 330 330 331 331 333 335 334 333 332 331 331 330 330 331 331 332 333 334 334 335 336 337 338 338 339 340 341 341
348 348 347 345 345 345 340 335 334 337 338 337 336 336 336 335 334 334 334 333 333 333 332 330 330 331 332 332 331 330 331 332 332 330 329 328 328 331 331 332 334 333 333 332 331 330 331 331 331 331 331 331 332 332 333 334 335 336 336 338 339 339 340
348 347 345 344 344 341 337 333 334 336 337 336 336 336 335 335 334 334 335 335 334 334 333 332 331 332 333 333 331 330 330 331 331 329 329 328 329 330 331 332 333 332 331 331 332 332 332 332 331 330 329 329 329 329 330 332 333 334 335 336 337 337 338
347 346 345 343 343 342 337 333 333 336 336 336 335 336 336 334 334 335 334 335 335 335 334 333 333 333 333 332 330 330 330 331 331 330 329 328 329 330 331 332 332 331 331 331 332 333 333 332 330 329 328 328 329 329 329 330 332 333 333 334 335 336 336
346 345 344 343 342 343 339 333 333 336 335 336 336 335 336 334 334 335 335 335 336 335 335 334 334 334 333 331 330 329 330 331 329 329 328 328 328 329 331 331 331 332 332 331 332 333 333 331 330 329 329 329 330 330 331 331 332 333 333 334 334 335 335
345 344 343 341 342 341 337 332 334 335 334 335 336 336 336 335 335 336 336 336 337 335 335 334 334 333 332 331 329 328 329 330 329 329 329 328 328 328 329 330 330 331 331 332 332 333 332 331 330 331 331 330 329 329 329 330 331 331 332 332 333 333 334
344 344 342 341 341 339 335 332 333 334 334 336 337 336 336 336 337 337 337 337 337 335 335 334 334 333 331 330 328 327 328 329 330 330 330 330 329 328 328 329 329 329 330 331 332 333 333 333 333 332 331 331 331 331 330 329 329 329 329 330 330 331 332
343 343 341 339 339 337 332 332 333 333 334 335 337 337 336 337 337 337 337 337 336 336 335 334 334 332 331 329 327 327 327 327 329 330 330 329 329 329 329 329 329 329 329 329 330 331 332 334 334 333 332 332 332 333 332 331 331 331 331 329 329 330 332
344 342 341 340 338 336 331 331 332 332 334 336 336 337 337 337 338 337 338 338 336 336 334 333 333 332 330 329 328 328 327 327 328 329 329 328 328 328 329 329 329 329 329 329 329 330 330 332 333 333 333 333 333 333 332 332 333 332 332 331 330 331 333
342 340 341 341 340 340 336 333 332 332 334 336 336 337 337 337 338 338 338 338 336 335 333 332 332 332 331 330 328 327 327 327 327 327 327 325 326 327 328 329 330 329 328 328 328 329 329 330 332 331 332 332 333 333 333 333 332 331 331 332 332 332 333
340 340 341 341 342 343 341 336 332 332 334 336 336 338 337 337 338 338 338 337 337 335 331 330 331 333 332 330 329 327 327 327 326 326 325 325 326 328 328 329 330 330 329 328 328 328 329 330 330 330 330 330 332 333 332 332 332 331 331 330 330 331 331
339 340 339 341 342 341 340 338 334 332 334 336 336 337 337 338 338 338 338 337 336 334 330 329 331 332 332 331 330 328 327 326 326 325 325 325 326 327 327 329 330 330 330 329 329 329 329 329 329 329 329 330 332 333 332 332 332 331 330 329 329 329 329
340 340 339 341 342 341 342 341 337 332 332 335 336 336 338 338 337 337 338 337 336 333 330 328 329 332 332 331 330 328 328 327 326 325 326 326 326 325 326 328 329 330 331 330 330 330 330 330 330 330 329 329 332 333 332 331 331 330 330 329 327 327 327
341 340 341 342 342 341 341 342 339 332 331 334 335 336 338 337 337 338 337 336 335 332 330 329 329 330 331 331 330 328 328 327 326 326 327 327 326 325 325 327 329 330 331 331 330 330 330 330 330 330 329 329 331 332 331 330 330 330 330 329 328 327 327
341 339 341 342 342 340 338 340 337 331 332 334 334 336 338 336 337 337 336 336 334 331 330 329 330 330 329 330 329 327 326 326 326 326 326 326 326 326 326 326 327 329 330 331 331 330 330 330 330 330 329 330 331 331 331 329 328 330 330 329 329 329 328
340 339 340 341 340 338 337 339 335 330 332 334 334 336 336 335 336 336 336 335 333 331 330 330 331 330 329 328 326 326 325 326 327 327 326 326 326 326 327 327 327 328 330 331 330 329 329 329 330 330 329 331 332 332 331 329 327 330 330 328 328 329 329
340 339 340 340 339 338 338 339 336 331 332 333 335 336 335 334 335 335 335 334 332 330 329 329 331 330 329 328 327 326 327 327 327 327 327 326 325 326 327 327 327 328 330 331 329 329 329 328 329 329 330 331 332 333 333 328 326 328 329 328 328 328 329
339 340 341 340 339 338 338 336 333 331 332 334 335 334 333 334 334 334 333 331 330 331 329 329 330 329 330 329 328 328 329 328 329 328 327 325 324 325 327 327 328 329 330 330 329 328 328 328 329 329 329 330 332 334 331 326 325 328 328 328 328 326 326
338 340 341 338 337 338 335 332 331 331 333 334 333 332 333 334 333 333 332 331 330 330 329 329 330 329 330 330 329 330 329 329 330 329 326 324 324 325 326 328 328 329 329 329 328 327 328 328 329 329 330 329 331 333 330 326 328 329 326 327 329 327 324
338 341 340 337 338 337 332 329 330 331 333 333 332 333 333 333 333 333 332 331 332 331 330 331 330 330 330 330 330 330 330 330 330 328 324 323 323 325 326 328 329 329 328 328 327 327 328 328 329 329 330 330 329 332 332 328 328 327 324 325 328 327 324
338 339 339 337 336 334 330 329 331 332 333 332 331 332 333 332 333 332 332 332 332 331 332 332 331 331 331 331 331 331 330 331 329 326 324 325 324 325 326 328 328 328 327 327 326 326 326 326 327 327 329 330 330 332 332 329 328 328 324 324 326 326 324
335 334 335 333 331 332 330 331 333 332 331 331 331 332 332 332 332 333 332 332 332 332 333 332 332 332 332 331 331 330 331 330 328 326 327 326 324 324 326 327 327 326 326 326 326 326 324 324 324 325 326 329 331 332 331 328 330 330 325 322 324 326 324
329 328 330 329 329 330 330 331 333 331 331 331 331 331 331 331 332 333 333 332 332 332 332 333 333 332 332 332 331 331 331 330 328 328 326 325 323 324 325 326 325 324 324 325 326 326 324 323 324 323 324 326 329 333 331 328 329 331 327 323 323 325 325
329 326 328 329 329 330 331 332 332 331 331 332 332 331 331 332 333 333 333 333 333 332 333 333 333 331 331 330 330 330 331 330 329 327 325 324 324 324 324 325 323 323 323 324 327 327 325 324 324 323 322 323 326 331 332 330 330 331 328 324 322 324 325
331 327 326 328 329 331 332 332 332 332 332 333 332 331 331 332 333 334 334 333 332 333 333 332 330 327 327 327 328 329 330 330 328 326 324 324 324 324 324 323 322 322 322 324 326 326 325 325 324 323 323 322 323 327 330 331 330 328 327 325 322 323 325
326 327 328 329 331 330 332 332 332 332 332 332 331 331 332 333 334 333 334 333 333 334 332 328 326 325 325 326 327 328 330 329 327 325 324 324 324 324 323 322 321 321 322 322 323 324 325 324 324 323 323 322 322 323 326 330 330 327 326 325 324 323 324
327 329 328 329 331 331 330 331 331 332 332 332 331 333 333 333 333 333 333 334 333 330 327 325 325 325 325 326 327 328 328 328 326 324 323 323 324 323 321 321 321 322 321 321 322 322 323 323 323 323 322 323 323 322 323 327 330 328 327 326 325 325 325
329 329 327 328 330 331 331 331 330 331 332 332 332 332 333 333 333 333 333 332 329 326 325 326 326 326 326 326 327 328 328 328 326 323 323 323 323 322 321 321 322 322 322 322 321 321 322 322 323 323 323 322 323 322 321 324 328 328 328 328 327 327 328
328 327 328 329 329 331 331 330 330 331 331 331 332 333 334 334 332 330 329 327 326 326 326 327 327 326 326 325 325 326 327 328 325 323 323 324 322 321 321 322 322 322 322 322 322 321 321 321 322 323 323 323 324 323 322 322 324 325 327 328 329 329 330
327 326 327 327 328 330 332 331 330 330 330 331 332 332 333 332 329 328 326 326 326 326 327 327 327 327 326 325 325 325 326 326 324 322 323 323 321 321 322 322 322 322 321 322 322 322 321 321 321 323 323 323 324 324 323 322 323 324 324 325 326 326 328
327 326 326 327 327 329 331 332 330 329 330 330 331 332 332 329 327 326 326 325 326 327 327 327 327 326 325 325 324 324 325 325 323 322 323 322 321 321 322 322 322 322 321 322 322 322 321 321 321 322 322 322 323 324 324 323 323 323 322 321 321 321 322
326 325 325 326 327 329 331 331 329 328 329 330 331 331 330 328 327 326 326 326 326 327 327 327 326 324 323 323 323 323 325 324 322 321 321 321 320 321 322 321 322 322 322 322 322 322 321 320 320 321 321 322 323 323 324 324 323 323 322 320 320 320 319
320 322 324 325 327 330 331 330 329 329 329 330 331 330 328 327 327 326 327 327 327 326 326 326 325 322 322 322 323 324 324 323 322 321 321 321 321 321 321 321 322 322 322 322 322 321 320 320 320 321 321 322 323 323 324 324 323 323 322 321 322 322 320
320 321 322 324 327 330 331 330 329 329 329 329 329 329 327 327 327 327 327 327 327 326 326 325 323 322 322 322 322 323 322 321 320 320 320 320 321 321 321 321 322 323 323 322 321 320 320 320 320 320 320 321 322 322 322 323 323 322 322 323 324 323 321
322 323 323 325 328 329 328 328 327 327 328 328 328 327 328 328 328 328 328 326 326 326 325 325 323 322 322 321 321 322 321 320 320 320 319 320 321 321 321 322 323 323 324 323 321 320 319 319 320 320 320 321 321 322 322 322 322 321 321 322 324 323 321
323 324 324 326 328 328 326 326 326 326 326 327 327 327 328 328 328 327 327 326 326 326 325 324 324 323 322 321 321 321 321 320 321 320 320 320 320 320 322 323 323 324 324 322 321 320 319 319 319 320 320 321 321 322 322 322 322 321 321 322 323 322 321
323 324 324 325 326 327 326 326 326 326 326 326 327 327 327 327 327 326 326 326 326 325 324 323 323 323 322 322 322 322 321 321 321 321 321 321 320 321 323 324 324 324 324 322 320 319 319 319 319 320 321 321 322 322 321 321 321 321 320 321 322 321 321
Wind_Speed
7 7 7 6 6 6 7 9 11 12 15 16 14 11 8 5 3 3 3 4 6 7 9 10 9 8 7 9 10 12 13 14 14 14 15 15 15 15 14 13 12 13 14 15 15 15 15 14 14 14 14 15 17 18 19 19 20 21 21 22 23 23 22
8 8 8 6 6 6 7 9 10 13 16 16 14 11 9 7 6 4 4 5 6 8 9 10 9 8 8 9 10 10 10 11 13 14 15 16 16 15 14 14 12 11 12 13 14 15 15 15 14 15 16 16 17 18 19 20 20 21 22 22 22 23 24
9 9 8 7 7 6 7 9 10 13 17 17 15 13 11 9 7 5 5 5 6 8 9 9 9 9 10 10 10 9 9 9 10 12 13 14 15 15 14 13 12 12 12 12 13 14 14 14 14 14 15 16 17 18 19 19 20 20 21 22 23 24 25
10 10 8 7 6 6 7 10 11 14 17 17 15 13 11 9 6 6 6 7 7 8 9 9 9 10 10 10 10 9 8 8 8 10 11 12 13 14 14 12 11 12 13 13 13 13 13 14 14 15 16 18 19 19 19 19 19 20 20 21 22 24 26
11 10 7 6 6 5 6 10 12 15 17 17 15 13 11 8 7 7 8 8 9 9 8 8 9 10 10 10 10 9 8 8 8 10 12 13 14 14 13 12 11 12 13 14 14 13 13 14 16 17 18 20 20 20 20 20 19 19 20 20 21 23 24
11 10 8 7 7 6 7 10 14 17 18 18 16 14 11 9 9 10 9 9 10 9 8 9 10 10 9 9 9 9 8 8 9 10 13 15 15 15 13 11 10 12 13 14 14 14 14 15 17 18 19 20 21 20 20 21 21 20 20 20 21 22 23
11 10 8 7 7 7 7 11 14 16 17 17 16 14 12 12 12 11 11 11 10 9 9 9 10 9 9 9 9 9 8 9 10 10 13 16 17 16 13 12 12 13 14 14 14 15 15 16 17 18 19 20 20 20 22 22 23 23 22 21 21 22 23
11 10 9 8 8 7 8 11 14 16 16 16 16 16 14 14 14 13 12 12 10 9 9 10 10 9 8 9 9 9 9 10 11 11 14 16 17 17 15 14 14 15 16 16 15 15 16 17 18 19 19 20 20 21 23 24 25 25 25 23 23 24 24
9 7 8 8 8 8 10 13 14 16 16 15 16 16 16 17 16 15 13 12 11 11 10 10 10 9 8 9 10 10 10 11 12 12 14 15 16 17 16 15 15 15 16 16 16 16 16 16 18 20 21 20 21 22 24 26 26 26 25 25 25 25 26
7 7 7 7 7 7 9 10 11 14 15 15 16 18 19 19 17 15 14 12 12 11 10 10 9 9 9 9 11 11 11 12 13 13 14 15 15 16 16 16 15 15 16 16 16 16 17 17 18 21 23 23 24 24 25 26 27 27 27 26 26 27 28
7 8 7 8 7 6 6 7 10 13 15 16 18 20 20 19 17 15 14 13 12 11 10 10 9 10 10 10 11 12 12 13 14 14 14 15 15 16 16 16 15 15 15 16 17 18 18 18 19 21 24 25 26 26 26 27 27 28 28 27 27 28 28
8 8 9 10 8 7 6 7 9 13 15 17 19 21 21 20 18 15 14 13 12 11 10 10 10 11 11 11 11 12 13 14 14 14 14 16 17 17 17 17 17 16 16 16 18 19 19 19 20 23 25 25 25 26 26 29 29 26 24 25 25 27 28
8 8 9 9 8 7 6 6 8 13 16 19 20 21 21 19 17 14 13 13 12 11 10 10 11 12 12 12 12 12 13 14 14 14 15 16 17 18 18 18 18 18 18 18 19 19 18 18 20 23 24 24 25 25 25 28 28 23 22 24 26 28 30
8 8 8 8 8 8 8 7 8 11 16 19 20 20 20 17 15 13 13 13 12 11 10 11 11 12 12 13 12 13 13 14 14 15 15 16 17 18 18 19 19 19 20 20 20 19 18 18 19 21 22 23 23 23 25 27 26 22 22 26 29 31 33
10 10 9 9 8 8 9 8 8 11 16 19 19 19 18 16 13 13 14 15 13 12 11 11 12 12 12 13 13 14 14 14 15 15 16 16 17 17 17 18 19 20 21 21 20 19 18 17 19 20 21 22 21 21 24 25 23 21 22 26 31 34 35
12 11 11 10 9 8 9 9 9 12 16 17 18 18 17 15 14 14 16 16 15 13 12 11 12 12 12 13 13 13 14 15 15 15 16 16 17 17 17 18 19 20 21 21 19 19 18 18 19 19 20 21 20 19 21 22 20 20 22 26 32 34 34
13 12 11 10 9 8 8 8 8 11 14 17 19 19 16 15 15 15 16 17 16 15 13 12 12 12 12 13 12 12 13 14 15 15 16 17 18 18 18 18 19 20 21 20 19 19 19 19 19 18 18 19 18 17 18 20 19 17 21 27 31 32 31
13 12 11 10 9 9 9 8 9 12 16 19 20 18 16 15 16 17 18 18 17 16 14 13 13 13 14 14 13 13 14 15 16 16 16 16 17 18 18 18 18 19 19 19 18 18 18 18 18 17 17 16 15 15 17 19 18 16 21 27 29 29 29
14 13 12 11 10 10 10 11 13 17 20 21 19 17 16 17 18 18 18 17 17 15 15 15 15 15 16 15 15 15 15 16 18 19 17 16 17 18 18 18 18 18 18 17 17 17 18 18 17 17 16 14 13 12 12 16 17 17 22 25 26 27 27
14 13 11 10 10 10 10 13 17 20 23 22 18 16 16 17 19 19 18 16 16 15 15 16 16 17 18 17 17 17 16 17 19 19 17 15 17 18 18 17 17 16 16 15 15 17 18 17 16 16 15 14 13 13 11 13 15 17 21 23 25 25 24
11 11 10 9 8 9 11 15 18 20 21 20 17 17 18 19 20 19 18 17 17 16 17 18 18 19 19 19 19 18 17 18 19 18 16 16 18 19 17 16 16 16 15 15 15 16 16 15 15 15 15 15 14 14 13 12 13 15 19 21 22 23 23
11 10 10 11 12 13 17 21 23 23 22 19 18 19 20 21 21 21 20 19 18 18 18 19 19 20 20 19 19 18 18 18 18 16 16 18 19 18 17 15 15 16 15 14 14 14 14 14 14 16 17 16 14 13 13 11 10 13 17 20 21 21 21
12 12 12 15 18 21 24 28 27 24 21 19 19 21 22 22 22 22 22 20 19 20 20 20 20 21 20 18 17 17 18 17 16 17 18 18 18 17 16 15 15 15 15 14 12 11 12 13 14 15 18 17 13 12 12 12 11 13 15 18 20 19 19
8 12 14 17 19 19 21 25 25 22 20 20 22 23 23 24 24 24 23 22 21 21 21 21 22 22 20 19 17 16 16 15 15 16 17 17 16 15 14 14 14 14 13 13 12 9 10 13 14 15 17 18 14 11 12 13 14 13 14 16 18 18 17
6 11 14 17 19 20 21 23 23 21 21 22 24 25 25 25 25 24 24 23 22 21 21 21 21 21 20 19 17 15 14 14 14 14 14 14 14 13 13 13 12 11 12 13 11 8 8 11 13 14 16 17 16 13 11 13 14 12 12 15 17 16 15
8 11 13 16 20 21 21 22 22 21 22 24 26 26 26 25 24 23 23 22 21 20 20 20 20 19 17 16 14 14 14 13 12 12 12 12 13 13 12 10 9 9 10 11 11 9 9 10 11 13 14 15 16 15 12 11 12 11 11 13 15 15 14
11 14 17 19 21 21 21 23 25 26 26 28 28 27 25 24 22 22 22 20 19 20 19 19 18 16 14 14 13 14 14 12 11 11 11 11 12 11 9 7 8 9 9 10 10 10 10 10 11 12 13 14 16 17 14 10 10 10 10 11 13 15 15
9 12 14 16 18 21 22 23 25 27 28 29 27 24 22 20 19 20 19 18 19 20 19 17 16 14 13 14 15 16 16 13 11 11 12 11 10 9 7 6 7 8 8 9 10 10 10 10 11 12 13 14 15 16 15 12 11 11 11 11 12 14 15
10 11 14 15 17 21 24 23 23 26 27 25 23 20 17 16 17 17 17 17 19 18 16 15 15 14 14 15 16 17 17 15 12 12 13 12 9 8 7 8 7 7 6 8 9 10 10 10 11 11 12 13 13 14 14 13 12 12 12 12 12 14 15
9 12 15 18 20 22 23 22 22 24 24 20 18 16 15 15 15 15 15 17 18 16 14 14 15 15 15 16 17 18 17 16 14 13 14 12 9 8 9 9 8 6 6 7 8 10 11 11 10 10 11 12 13 13 12 13 13 13 13 13 13 14 15
9 12 14 17 18 18 20 22 21 20 19 18 15 14 14 14 14 13 14 16 17 15 14 14 14 15 16 17 18 19 18 16 14 14 14 11 7 7 11 11 9 6 6 7 8 9 11 12 12 11 11 12 13 13 11 12 13 13 13 13 13 14 15
9 12 14 15 15 15 17 18 17 16 17 16 15 15 15 15 14 14 15 16 16 14 14 14 14 15 16 17 18 19 17 15 13 13 12 9 6 8 12 12 10 8 7 7 8 9 10 12 12 13 14 15 15 14 13 11 11 12 12 12 13 15 17
8 11 13 15 15 15 15 15 15 15 16 16 16 16 16 15 15 15 16 16 15 14 14 14 13 14 15 15 17 18 15 14 14 14 12 9 8 10 13 12 10 10 10 8 8 8 9 11 13 14 15 16 17 16 14 12 12 11 11 11 12 13 16
7 8 10 12 12 12 14 15 15 16 16 17 17 17 16 16 16 16 17 15 13 13 13 13 12 12 13 14 16 16 13 12 13 13 11 10 10 12 13 12 10 10 10 8 7 8 8 9 11 13 14 15 15 15 14 12 12 11 10 11 11 12 14
4 5 7 8 8 10 13 14 15 16 16 17 16 15 15 16 15 15 15 13 11 11 12 11 10 11 12 13 13 13 10 9 11 11 10 12 13 13 14 12 9 8 8 7 6 6 6 8 10 11 12 13 12 12 14 14 13 12 11 11 11 11 12
3 5 7 7 8 10 11 11 12 13 14 14 13 13 13 15 15 15 13 11 9 9 9 9 10 12 13 12 12 13 13 13 13 12 11 13 14 13 12 10 7 7 7 5 2 3 5 7 9 10 12 13 11 9 11 12 13 12 12 10 9 8 10
3 5 6 7 8 8 8 8 9 9 11 12 11 11 12 12 12 12 11 8 6 6 6 7 9 11 12 13 14 16 16 16 14 10 9 11 12 12 11 8 6 7 7 4 2 2 4 6 8 9 11 12 12 10 9 9 10 11 10 9 7 6 7
3 4 5 6 7 7 7 7 6 7 8 9 9 10 11 11 11 11 8 5 4 4 4 5 7 9 13 15 16 17 18 17 16 13 12 12 12 11 9 6 6 6 5 4 4 3 6 7 9 10 10 11 12 12 11 11 10 10 9 8 7 5 5
Wind_Direction
196 205 209 213 213 210 210 202 191 177 169 165 166 170 169 175 209 250 281 312 319 316 320 324 323 319 311 309 317 323 320 317 319 324 329 330 332 334 335 337 338 339 341 341 340 340 337 331 324 317 309 302 296 291 288 284 283 282 278 277 276 273 267
201 210 211 210 209 213 213 200 188 179 173 169 170 172 176 189 206 228 262 294 302 304 314 319 317 310 303 305 314 318 312 311 316 324 329 330 330 328 327 329 332 334 336 336 337 340 340 337 332 326 319 312 306 300 296 291 285 282 279 278 277 274 270
202 210 209 205 206 208 201 190 188 187 180 174 174 178 185 195 207 228 258 279 286 294 306 314 312 305 300 304 312 315 312 312 321 330 334 333 331 328 324 323 325 329 332 335 339 342 342 340 338 334 327 321 316 310 305 299 292 287 282 280 279 275 270
203 209 203 199 203 202 195 189 192 193 187 182 182 187 193 199 215 236 255 269 273 283 296 306 309 302 300 305 310 313 314 315 322 329 331 332 331 327 324 322 323 327 330 334 338 341 342 342 342 339 334 328 323 318 312 306 300 293 286 281 278 276 273
206 206 195 193 197 195 192 194 198 197 191 187 188 193 197 205 224 238 250 259 264 274 285 297 302 296 296 302 305 312 316 316 321 326 329 331 330 328 325 324 328 330 331 334 336 336 339 342 342 340 337 333 329 324 319 314 308 301 296 288 281 277 274
203 202 193 190 191 191 193 199 204 200 194 191 191 194 200 213 228 236 245 250 256 267 278 290 291 286 291 297 301 312 321 320 322 330 337 337 332 327 323 323 327 330 332 336 336 333 333 336 339 337 335 334 330 326 322 319 314 309 304 299 290 283 278
200 198 190 186 186 187 196 204 207 203 198 195 194 198 206 220 230 235 240 244 250 261 272 281 280 276 287 296 299 307 320 322 321 327 336 338 334 327 317 311 317 324 329 333 334 332 328 327 331 333 330 328 327 327 325 322 319 316 311 305 299 293 288
198 190 182 182 182 184 195 203 204 201 199 196 196 202 212 223 229 233 236 240 247 255 264 272 272 272 286 300 302 304 312 318 317 319 324 329 332 331 322 312 312 317 322 325 329 329 325 322 323 323 321 319 318 320 321 321 320 317 312 307 303 300 296
188 181 179 178 177 187 199 202 198 195 195 197 199 208 218 225 229 233 237 240 245 252 262 269 269 273 284 295 301 302 305 312 315 317 318 322 327 332 332 325 318 316 316 319 324 325 323 320 317 315 315 315 315 315 315 316 316 314 311 308 305 302 299
172 171 173 173 180 192 195 191 189 190 193 197 204 213 220 225 229 233 237 240 243 252 266 271 269 273 278 286 298 302 302 308 312 312 314 318 322 327 333 332 326 320 316 315 318 320 321 321 318 316 315 315 317 318 318 316 314 313 311 308 306 302 298
171 169 168 175 182 183 178 176 182 189 194 199 208 217 222 225 228 232 236 239 244 256 271 275 271 270 273 280 294 300 302 308 312 311 311 314 318 323 328 330 327 322 318 316 316 316 317 319 320 319 318 317 318 320 322 323 322 321 317 315 314 309 303
171 170 173 179 179 175 177 181 187 191 196 204 213 219 222 223 226 230 235 237 243 258 273 277 270 265 267 275 290 299 301 306 311 311 311 314 318 321 322 324 323 319 317 317 318 319 319 318 318 317 317 319 322 324 326 329 332 333 326 322 323 320 315
173 175 178 178 174 173 176 181 190 196 201 210 217 220 220 221 224 228 233 239 247 258 268 274 267 260 261 269 284 294 295 301 309 312 314 318 321 321 321 322 321 318 316 316 317 321 323 321 314 310 313 320 323 326 327 328 332 333 326 325 327 324 321
170 176 177 172 169 175 181 186 194 199 207 215 219 219 218 218 223 229 237 245 252 254 260 265 260 256 257 264 277 286 288 295 303 308 314 320 323 324 324 323 322 320 318 315 315 317 320 321 314 307 313 321 323 324 326 329 332 328 320 326 331 328 323
174 178 177 176 180 186 188 189 193 200 210 216 216 213 212 214 222 232 241 248 251 250 253 256 255 255 257 261 270 279 284 290 297 305 314 319 322 325 326 326 326 323 320 317 316 315 315 317 315 312 315 322 325 325 327 332 334 326 320 329 336 333 328
178 180 180 182 187 191 190 191 194 201 209 212 210 208 208 215 225 234 243 250 251 248 248 250 253 258 261 263 269 276 282 288 296 305 313 317 320 322 323 325 326 325 322 319 316 316 315 314 313 313 316 320 323 322 325 332 333 323 325 338 342 339 334
180 181 183 187 188 187 191 194 196 202 208 209 208 207 209 219 229 236 245 251 250 247 247 249 254 260 263 265 270 276 282 291 298 306 312 317 319 319 319 321 322 322 322 319 316 317 318 316 312 309 311 316 318 316 321 331 331 325 335 348 351 348 344
182 181 183 187 186 184 190 195 197 204 209 209 207 207 213 223 229 235 243 249 249 247 246 249 255 261 264 266 270 275 283 292 298 303 310 317 320 319 317 316 317 319 319 317 319 321 321 319 315 308 308 315 314 309 320 330 331 338 352 358 1 4 2
178 182 187 189 187 186 190 196 200 204 207 207 206 210 220 226 228 234 242 248 250 248 247 250 256 260 264 268 272 276 285 293 297 302 309 317 320 318 315 314 315 317 318 318 321 323 321 320 318 310 308 315 308 296 314 332 336 350 2 2 5 11 10
180 182 187 189 185 187 193 198 203 207 207 206 208 216 225 228 230 236 243 248 251 250 249 251 255 260 264 269 273 279 287 293 298 303 309 317 321 317 314 315 317 319 322 324 324 324 323 322 322 315 309 312 307 296 309 335 346 357 3 1 3 9 10
181 180 183 186 185 192 198 196 200 206 206 207 212 219 225 228 231 235 241 245 249 250 251 253 256 261 265 270 275 281 287 295 300 303 308 316 320 318 315 315 320 324 327 328 326 326 327 327 325 318 309 306 305 301 311 336 353 357 358 359 2 7 12
181 182 182 186 188 194 197 197 198 201 202 207 214 220 226 229 230 232 237 243 246 249 253 256 258 262 265 270 277 282 287 295 299 299 305 314 317 316 316 317 323 328 331 331 327 326 330 330 325 321 315 308 301 299 308 329 350 352 352 357 0 5 14
179 183 187 191 194 197 197 198 199 198 201 209 216 221 227 230 229 230 235 241 245 249 253 255 258 264 268 271 278 284 288 292 296 300 307 314 316 316 317 318 324 330 331 329 324 323 328 329 326 329 330 321 306 298 306 321 339 345 345 351 357 2 12
177 187 191 190 192 197 200 199 198 199 205 213 219 224 229 230 228 228 232 239 245 250 252 254 259 266 272 274 279 285 287 288 293 302 311 316 317 318 319 320 323 326 327 323 318 314 321 325 330 339 343 336 321 306 307 320 334 339 337 342 351 358 8
178 191 196 192 189 193 199 199 199 203 209 215 222 227 228 229 228 226 229 238 246 250 252 255 262 272 280 282 283 284 282 283 290 301 310 313 316 319 320 320 321 323 326 325 320 315 318 324 330 338 344 344 337 323 314 322 335 341 336 337 344 352 0
179 184 191 195 198 199 199 197 199 205 211 217 224 228 229 228 225 223 229 239 246 249 253 259 270 281 288 287 282 277 274 278 288 295 299 304 311 315 316 319 327 334 335 333 330 328 327 326 328 333 339 344 343 337 327 325 335 341 337 335 341 347 352
189 187 188 193 200 201 199 199 203 209 216 221 225 228 228 225 221 222 231 239 245 250 259 267 276 284 285 279 271 268 269 275 284 288 287 293 304 308 308 320 337 344 345 343 339 332 327 323 321 324 329 334 339 342 339 331 331 333 332 331 335 343 348
186 191 195 197 200 200 200 202 207 213 220 224 225 227 226 221 218 224 231 238 247 257 268 274 277 278 277 272 267 263 264 268 275 280 279 282 293 297 295 309 329 340 348 352 349 340 329 320 312 312 318 325 335 342 344 341 334 328 324 320 323 334 343
182 190 196 197 201 204 203 204 210 216 222 224 224 225 222 216 216 223 231 241 255 268 277 279 277 272 266 265 264 263 261 261 264 271 273 272 273 274 280 294 307 321 337 349 353 348 339 327 315 310 314 323 333 342 346 345 340 333 328 319 313 317 326
195 200 201 201 205 207 205 207 213 218 222 224 223 221 216 212 215 221 232 250 265 276 282 282 281 274 264 260 260 259 257 253 254 263 266 260 254 264 280 290 295 305 326 342 348 346 343 339 329 320 318 323 331 339 345 345 342 340 339 330 319 317 317
217 216 214 214 216 215 211 213 216 219 221 220 217 213 210 210 215 223 239 259 271 279 284 288 288 282 273 265 263 263 259 249 250 263 262 248 246 279 293 293 294 302 317 330 339 342 342 340 335 328 322 320 324 332 340 344 343 343 347 344 339 338 334
238 231 226 226 228 226 220 218 218 219 219 215 209 207 208 210 217 231 249 264 272 281 290 294 293 290 284 274 273 275 266 250 254 270 264 243 243 280 288 288 293 302 307 315 328 338 341 338 335 331 325 320 321 325 330 337 341 343 347 349 348 350 349
241 235 232 234 235 230 219 212 212 213 214 212 206 204 206 211 222 240 255 265 272 281 288 290 291 297 297 289 285 283 270 251 256 265 258 245 252 270 277 281 289 300 304 307 318 332 341 340 338 336 331 326 325 324 323 329 337 342 346 347 346 350 352
255 248 243 241 238 227 215 208 208 209 212 214 209 204 207 217 231 246 258 265 271 276 282 286 290 300 310 308 298 288 271 255 261 266 255 247 254 268 277 279 284 298 306 309 318 332 340 343 343 342 337 334 332 327 324 327 333 337 340 340 341 346 351
262 245 237 235 227 217 212 213 213 213 216 219 213 206 212 225 239 252 260 265 270 274 275 281 291 303 312 314 307 299 285 271 279 287 277 259 254 260 271 276 276 287 295 300 316 337 350 358 360 355 350 350 347 332 322 321 325 329 331 333 337 345 351
227 198 196 201 205 207 211 216 217 217 220 222 218 215 224 237 248 259 264 266 271 272 270 280 298 305 306 310 315 316 310 298 294 294 279 263 259 265 273 274 268 269 272 270 303 2 17 20 17 9 360 359 359 344 324 319 321 323 323 327 338 349 355
200 172 168 174 181 186 196 204 209 216 224 227 228 233 243 254 267 277 280 272 261 263 273 289 301 302 304 313 321 321 316 310 306 301 279 270 275 281 278 264 247 253 253 222 170 54 30 26 21 15 5 357 355 351 342 336 331 327 322 322 332 351 5
180 164 161 169 174 180 191 203 215 231 240 247 256 262 269 282 293 294 286 261 241 261 289 298 300 300 301 303 306 308 308 307 310 317 313 301 292 283 270 246 222 227 222 178 145 72 42 35 26 20 13 4 358 354 354 354 349 340 334 330 326 335 5